User: anonymous   Login
Location: Unspecified
(0.0000°N, 0.0000°E)
Time: 13:49:24
(UTC+00:00)
Language:

OAO 2 - Orbit

View from above orbital plane
View from above orbital plane
View from above satellite
View from above satellite

Ground track
Ground track

The orbit data is extracted from the following two-line orbital elements,

1  3597U 68110A   18171.94733121 +.00000006 +00000-0 +67867-5 0  9993
2  3597 034.9928 135.0955 0006093 307.4848 052.5288 14.45807169610856
Epoch (UTC): 20 June 2018 22:44:09
Eccentricity: 0.0006093
inclination: 34.9928°
perigee height: 735 km
apogee height: 744 km
right ascension of ascending node: 135.0955°
argument of perigee: 307.4848°
revolutions per day: 14.45807169
mean anomaly at epoch: 52.5288°
orbit number at epoch: 61085

The dashed part of the orbit path shows where the satellite is in the earth's shadow,  

DLR